Tiempo cada hora Goiânia

Hoy, 4 Diciembre, Viernes

Tiempo Temperatura Precipitaciones Viento Presión Humedad
00:00 +23°C° 0 mm 0 mps 693 mmHg 50%
01:00 +25°C° 0 mm 1 mps 693 mmHg 51%
02:00 +24°C° 0 mm 1 mps 693 mmHg 52%
03:00 +24°C° 0 mm 1 mps 694 mmHg 53%
04:00 +23°C° 0 mm 1 mps 694 mmHg 55%
05:00 +23°C° 0 mm 1 mps 694 mmHg 58%
06:00 +22°C° 0 mm 1 mps 694 mmHg 60%
07:00 +25°C° 0 mm 1 mps 695 mmHg 55%
08:00 +28°C° 0 mm 1 mps 696 mmHg 50%
09:00 +31°C° 0 mm 1 mps 697 mmHg 45%
10:00 +33°C° 0 mm 1 mps 697 mmHg 40%
11:00 +35°C° 0 mm 1 mps 697 mmHg 36%
12:00 +35°C° 0 mm 0 mps 697 mmHg 31%
13:00 +37°C° 0 mm 1 mps 696 mmHg 31%
14:00 +36°C° 0 mm 1 mps 695 mmHg 31%
15:00 +36°C° 0 mm 1 mps 694 mmHg 30%
16:00 +34°C° 0 mm 1 mps 694 mmHg 37%
17:00 +32°C° 0 mm 1 mps 693 mmHg 43%
18:00 +31°C° 0 mm 1 mps 693 mmHg 49%
19:00 +30°C° 0 mm 1 mps 693 mmHg 51%
20:00 +29°C° 0 mm 1 mps 693 mmHg 54%
21:00 +28°C° 0 mm 1 mps 694 mmHg 56%
22:00 +27°C° 0 mm 1 mps 694 mmHg 58%
23:00 +26°C° 0 mm 1 mps 694 mmHg 60%

Mañana, 5 Diciembre, Sábado

Tiempo Temperatura Precipitaciones Viento Presión Humedad
00:00 +25°C° 0 mm 1 mps 694 mmHg 62%
01:00 +25°C° 0 mm 1 mps 693 mmHg 64%
02:00 +24°C° 0 mm 1 mps 693 mmHg 65%
03:00 +24°C° 0 mm 1 mps 693 mmHg 67%
04:00 +22°C° 0 mm 0 mps 693 mmHg 68%
05:00 +22°C° 0 mm 0 mps 693 mmHg 69%
06:00 +22°C° 0 mm 0 mps 693 mmHg 71%
07:00 +26°C° 0 mm 1 mps 694 mmHg 63%
08:00 +29°C° 0 mm 1 mps 695 mmHg 55%
09:00 +32°C° 0 mm 1 mps 696 mmHg 48%
10:00 +34°C° 0 mm 1 mps 696 mmHg 43%
11:00 +36°C° 0 mm 1 mps 696 mmHg 38%
12:00 +37°C° 0 mm 1 mps 696 mmHg 34%
13:00 +36°C° 0 mm 1 mps 695 mmHg 36%
14:00 +35°C° 0 mm 1 mps 694 mmHg 38%
15:00 +34°C° 0 mm 1 mps 693 mmHg 40%
16:00 +34°C° 0.1 mm 2 mps 692 mmHg 45%
17:00 +32°C° 0.1 mm 2 mps 692 mmHg 49%
18:00 +30°C° 0.1 mm 2 mps 691 mmHg 54%
19:00 +29°C° 0.2 mm 2 mps 692 mmHg 60%
20:00 +27°C° 0.2 mm 2 mps 692 mmHg 67%
21:00 +25°C° 0.2 mm 2 mps 692 mmHg 73%
22:00 +25°C° 0.2 mm 2 mps 693 mmHg 75%
23:00 +25°C° 0.2 mm 1 mps 693 mmHg 78%

Pasado mañana, 6 Diciembre, Domingo

Tiempo Temperatura Precipitaciones Viento Presión Humedad
00:00 +24°C° 0.2 mm 1 mps 693 mmHg 80%
01:00 +24°C° 0.9 mm 1 mps 692 mmHg 83%
02:00 +23°C° 0.9 mm 1 mps 692 mmHg 86%
03:00 +22°C° 0.9 mm 1 mps 692 mmHg 88%
04:00 +22°C° 0.8 mm 1 mps 692 mmHg 89%
05:00 +22°C° 0.8 mm 1 mps 692 mmHg 89%
06:00 +20°C° 0.8 mm 0 mps 692 mmHg 90%
07:00 +24°C° 0.4 mm 1 mps 693 mmHg 85%
08:00 +25°C° 0.4 mm 1 mps 694 mmHg 80%
09:00 +26°C° 0.4 mm 1 mps 694 mmHg 76%
10:00 +27°C° 0.3 mm 1 mps 694 mmHg 71%
11:00 +28°C° 0.3 mm 1 mps 694 mmHg 67%
12:00 +28°C° 0.3 mm 1 mps 693 mmHg 63%
13:00 +29°C° 0 mm 1 mps 693 mmHg 60%
14:00 +30°C° 0 mm 1 mps 692 mmHg 57%
15:00 +28°C° 0 mm 0 mps 692 mmHg 54%
16:00 +30°C° 0 mm 1 mps 691 mmHg 58%
17:00 +29°C° 0 mm 1 mps 691 mmHg 62%
18:00 +28°C° 0 mm 2 mps 691 mmHg 66%
19:00 +27°C° 0.1 mm 2 mps 691 mmHg 70%
20:00 +26°C° 0.1 mm 1 mps 691 mmHg 74%
21:00 +24°C° 0.1 mm 1 mps 692 mmHg 78%
22:00 +24°C° 0.5 mm 1 mps 692 mmHg 80%
23:00 +24°C° 0.5 mm 1 mps 692 mmHg 82%

7 Diciembre, Lunes

Tiempo Temperatura Precipitaciones Viento Presión Humedad
00:00 +23°C° 0.5 mm 1 mps 692 mmHg 84%
01:00 +23°C° 1 mm 1 mps 692 mmHg 86%
02:00 +22°C° 1 mm 1 mps 692 mmHg 89%
03:00 +22°C° 1 mm 1 mps 692 mmHg 92%
04:00 +22°C° 1.8 mm 1 mps 692 mmHg 92%
05:00 +21°C° 1.8 mm 2 mps 692 mmHg 93%
06:00 +21°C° 1.8 mm 2 mps 693 mmHg 94%
07:00 +23°C° 1.5 mm 2 mps 693 mmHg 94%
08:00 +23°C° 1.5 mm 2 mps 693 mmHg 94%
09:00 +23°C° 1.5 mm 2 mps 694 mmHg 93%
10:00 +23°C° 1.1 mm 2 mps 694 mmHg 93%
11:00 +23°C° 1.1 mm 2 mps 694 mmHg 92%
12:00 +22°C° 1.1 mm 3 mps 693 mmHg 92%
13:00 +25°C° 0 mm 2 mps 693 mmHg 84%
14:00 +26°C° 0 mm 2 mps 692 mmHg 76%
15:00 +27°C° 0 mm 2 mps 692 mmHg 68%
16:00 +27°C° 0.2 mm 1 mps 692 mmHg 72%
17:00 +26°C° 0.2 mm 1 mps 692 mmHg 75%
18:00 +26°C° 0.2 mm 1 mps 692 mmHg 79%
19:00 +25°C° 0 mm 1 mps 692 mmHg 80%
20:00 +24°C° 0 mm 1 mps 692 mmHg 82%
21:00 +24°C° 0 mm 2 mps 693 mmHg 83%
22:00 +24°C° 0 mm 1 mps 693 mmHg 83%
23:00 +23°C° 0 mm 1 mps 693 mmHg 83%

8 Diciembre, Martes

Tiempo Temperatura Precipitaciones Viento Presión Humedad
00:00 +23°C° 0 mm 1 mps 693 mmHg 83%
01:00 +23°C° 0.2 mm 1 mps 693 mmHg 86%
02:00 +23°C° 0.2 mm 2 mps 693 mmHg 89%
03:00 +21°C° 0.2 mm 2 mps 692 mmHg 92%
04:00 +21°C° 0.2 mm 2 mps 692 mmHg 93%
05:00 +21°C° 0.2 mm 2 mps 693 mmHg 93%
06:00 +22°C° 0.2 mm 1 mps 693 mmHg 94%
07:00 +23°C° 0 mm 2 mps 694 mmHg 89%
08:00 +24°C° 0 mm 2 mps 694 mmHg 85%
09:00 +25°C° 0 mm 2 mps 695 mmHg 81%
10:00 +26°C° 0.1 mm 2 mps 695 mmHg 75%
11:00 +28°C° 0.1 mm 2 mps 694 mmHg 68%
12:00 +29°C° 0.1 mm 2 mps 694 mmHg 62%
13:00 +29°C° 0.1 mm 2 mps 693 mmHg 60%
14:00 +30°C° 0.1 mm 3 mps 693 mmHg 59%
15:00 +30°C° 0.1 mm 3 mps 692 mmHg 57%
16:00 +29°C° 0.6 mm 3 mps 692 mmHg 65%
17:00 +27°C° 0.6 mm 2 mps 692 mmHg 72%
18:00 +26°C° 0.6 mm 2 mps 691 mmHg 80%
19:00 +25°C° 0.1 mm 2 mps 692 mmHg 82%
20:00 +24°C° 0.1 mm 2 mps 692 mmHg 84%
21:00 +23°C° 0.1 mm 1 mps 692 mmHg 85%
22:00 +23°C° 0 mm 1 mps 692 mmHg 86%
23:00 +23°C° 0 mm 1 mps 692 mmHg 87%

9 Diciembre, Miércoles

Tiempo Temperatura Precipitaciones Viento Presión Humedad
00:00 +22°C° 0 mm 1 mps 692 mmHg 88%
01:00 +22°C° 0.1 mm 1 mps 692 mmHg 88%
02:00 +22°C° 0.1 mm 1 mps 692 mmHg 87%
03:00 +22°C° 0.1 mm 1 mps 691 mmHg 87%
04:00 +22°C° 0.4 mm 1 mps 692 mmHg 88%
05:00 +22°C° 0.4 mm 1 mps 692 mmHg 89%
06:00 +21°C° 0.4 mm 2 mps 692 mmHg 89%
07:00 +23°C° 0.2 mm 2 mps 693 mmHg 86%
08:00 +24°C° 0.2 mm 2 mps 694 mmHg 83%
09:00 +25°C° 0.2 mm 2 mps 694 mmHg 79%
10:00 +27°C° 1.2 mm 3 mps 694 mmHg 75%
11:00 +28°C° 1.2 mm 3 mps 694 mmHg 72%
12:00 +29°C° 1.2 mm 3 mps 694 mmHg 68%
13:00 +29°C° 1.8 mm 3 mps 693 mmHg 69%
14:00 +29°C° 1.8 mm 3 mps 692 mmHg 69%
15:00 +29°C° 1.8 mm 4 mps 692 mmHg 70%
16:00 +28°C° 1.5 mm 3 mps 692 mmHg 73%
17:00 +27°C° 1.5 mm 3 mps 692 mmHg 77%
18:00 +26°C° 1.5 mm 2 mps 691 mmHg 80%
19:00 +25°C° 2.8 mm 3 mps 692 mmHg 84%
20:00 +24°C° 2.8 mm 3 mps 692 mmHg 88%
21:00 +22°C° 2.8 mm 4 mps 692 mmHg 92%
22:00 +22°C° 1.9 mm 3 mps 692 mmHg 92%
23:00 +21°C° 1.9 mm 2 mps 692 mmHg 92%
Mostrar más

Necesitamos Su Consentimiento

Meteoprog y nuestros Proveedores de Servicios pueden almacenar y acceder a sus datos personales como cookies, identificadores de dispositivo u otras tecnologías similares de su dispositivo y procesar dichos datos para personalizar contenido y anuncios, además de ofrecer funciones de redes sociales y analizar el tráfico.

  • Almacenar y/o acceder a información en su dispositivo

    Se puede almacenar o acceder a cookies, identificadores de dispositivo u otra información de su dispositivo para los fines anteriormente indicados.

  • Anuncios y contenido personalizados, medición de anuncios y contenido, percepciones del público, y desarrollo de productos

    Los anuncios y el contenido pueden personalizarse en base a su perfil. Se pueden añadir más datos para personalizar mejor los anuncios y contenidos. Se puede medir el rendimiento de los anuncios y contenidos. Se puede obtener la percepción sobre el público que ha visto los anuncios y contenidos. Dichos datos pueden usarse para desarrollar o mejorar la experiencia del usuario, sistemas y software.

Al hacer clic en ‘Estoy De Acuerdo’ usted permitirá el uso de las cookies, identificadores de dispositivo, balizas web u otras tecnologías similares indicadas. Su configuración puede cambiarse desde el navegador de su dispositivo.

Para ciertos fines, los intereses legítimos pueden ser considerados por encima del consentimiento. Puede leer más sobre ello en nuestra Política de Privacidad y Cookies.